Погода в Хваре

Хорватия     43°10′08″N   16°26′55″E
темп.,
°C
ветер,
м/с
пор.,
м/с
влажн.,
%
обл.,
%
осадки,
мм/ч
давл.,
гПа
погр.,
м
17 августа, ср
ср1723:00+23вюв45820 0.0 1013150
02:00+23в34811 0.0 1013135
05:00+23в33730 0.0 1013106
08:00+24в23670 0.0 1013126
11:00+26ю21600 0.0 1014348
14:00+26зюз33640 0.0 1014348
17:00+27зсз22640 0.0 1013181
20:00+25ссз44740 0.0 101255
18 августа, чт
чт1823:00+24всв22710 0.0 101311
02:00+24вюв00740 0.0 101211
05:00+24в44660 0.0 101164
08:00+25в45670 0.0 1012117
11:00+27юв345978 0.0 1013282
14:00+28ююв555619 0.0 1011340
17:00+27вюв55580 0.0 1010238
20:00+26всв44561 0.0 100936
19 августа, пт
пт1923:00+26вюв45580 0.1 100950
02:00+26в610617 0.1 1007130
05:00+25сз227385 0.0 100826
08:00+26всв475939 0.0 1008125
11:00+26юв7126683 0.0 1008378
14:00+26вюв557936 0.1 1008267
17:00+27юв56730 0.0 1008443
20:00+25всв22810 0.0 100823
20 августа, сб
сб2023:00+24с338327 0.0 100937
02:00+24ссз227956 0.1 100921
05:00+23ссз34795 0.7 1009112
08:00+23сз46755 0.8 1010247
11:00+25зсз55705 0.1 1011461
14:00+25зсз77745 0.1 1011452
17:00+25зсз79754 0.0 1010301
20:00+24зсз578315 0.0 1010190
21 августа, вс
вс2123:00+25ссв33680 0.0 101033
02:00+24св44691 0.0 101062
05:00+23ссв57690 0.0 1010167
08:00+24с713580 0.0 1011487
11:00+27с68510 0.0 1011545
14:00+28ссз35520 0.0 1010607
17:00+28ссв69500 0.0 1009424
20:00+26ссв58540 0.0 100995